Stündliche Wetter Holubivka

Heute, 16 Juni, Mittwoch

Zeit Temperatur Niederschläge Wind Luftdruck Luftfeuchtigkeit
00:00 +15°C° 0.1 mm 4 m/S 732 mmHg 94%
01:00 +15°C° 0.1 mm 5 m/S 732 mmHg 94%
02:00 +14°C° 0 mm 5 m/S 732 mmHg 94%
03:00 +14°C° 0.1 mm 5 m/S 732 mmHg 93%
04:00 +14°C° 0.1 mm 5 m/S 732 mmHg 93%
05:00 +14°C° 0.1 mm 5 m/S 732 mmHg 93%
06:00 +15°C° 0 mm 5 m/S 732 mmHg 90%
07:00 +17°C° 0 mm 6 m/S 733 mmHg 86%
08:00 +19°C° 0 mm 6 m/S 733 mmHg 82%
09:00 +20°C° 0.1 mm 6 m/S 733 mmHg 79%
10:00 +21°C° 0.1 mm 6 m/S 733 mmHg 76%
11:00 +22°C° 0.1 mm 7 m/S 733 mmHg 72%
12:00 +22°C° 0.4 mm 7 m/S 733 mmHg 71%
13:00 +23°C° 0.4 mm 7 m/S 733 mmHg 70%
14:00 +23°C° 0.4 mm 7 m/S 733 mmHg 69%
15:00 +23°C° 0.3 mm 6 m/S 733 mmHg 72%
16:00 +22°C° 0.3 mm 6 m/S 733 mmHg 74%
17:00 +22°C° 0.3 mm 5 m/S 733 mmHg 76%
18:00 +21°C° 0 mm 5 m/S 734 mmHg 80%
19:00 +20°C° 0 mm 4 m/S 734 mmHg 84%
20:00 +18°C° 0 mm 4 m/S 734 mmHg 88%
21:00 +18°C° 0 mm 4 m/S 734 mmHg 90%
22:00 +17°C° 0 mm 4 m/S 734 mmHg 92%
23:00 +15°C° 0 mm 4 m/S 735 mmHg 94%

Morgen, 17 Juni, Donnerstag

Zeit Temperatur Niederschläge Wind Luftdruck Luftfeuchtigkeit
00:00 +15°C° 0 mm 4 m/S 735 mmHg 94%
01:00 +15°C° 0 mm 4 m/S 735 mmHg 95%
02:00 +14°C° 0 mm 4 m/S 735 mmHg 96%
03:00 +14°C° 0.1 mm 4 m/S 735 mmHg 95%
04:00 +14°C° 0.1 mm 4 m/S 735 mmHg 95%
05:00 +14°C° 0.1 mm 4 m/S 735 mmHg 95%
06:00 +16°C° 0.1 mm 5 m/S 735 mmHg 91%
07:00 +17°C° 0.1 mm 5 m/S 736 mmHg 88%
08:00 +20°C° 0.1 mm 6 m/S 736 mmHg 84%
09:00 +21°C° 0.2 mm 6 m/S 736 mmHg 80%
10:00 +22°C° 0.2 mm 6 m/S 736 mmHg 76%
11:00 +23°C° 0.2 mm 6 m/S 736 mmHg 73%
12:00 +23°C° 0.6 mm 6 m/S 737 mmHg 72%
13:00 +24°C° 0.6 mm 6 m/S 737 mmHg 72%
14:00 +24°C° 0.6 mm 6 m/S 737 mmHg 71%
15:00 +24°C° 0.2 mm 6 m/S 737 mmHg 73%
16:00 +25°C° 0.2 mm 5 m/S 737 mmHg 76%
17:00 +23°C° 0.2 mm 5 m/S 737 mmHg 78%
18:00 +22°C° 0.2 mm 4 m/S 737 mmHg 83%
19:00 +21°C° 0.2 mm 4 m/S 737 mmHg 87%
20:00 +20°C° 0.2 mm 3 m/S 737 mmHg 92%
21:00 +19°C° 0 mm 3 m/S 737 mmHg 93%
22:00 +18°C° 0 mm 3 m/S 738 mmHg 94%
23:00 +18°C° 0 mm 3 m/S 738 mmHg 95%

übermorgen, 18 Juni, Freitag

Zeit Temperatur Niederschläge Wind Luftdruck Luftfeuchtigkeit
00:00 +18°C° 0 mm 3 m/S 738 mmHg 95%
01:00 +17°C° 0 mm 4 m/S 738 mmHg 96%
02:00 +17°C° 0 mm 4 m/S 737 mmHg 97%
03:00 +17°C° 0 mm 4 m/S 738 mmHg 97%
04:00 +17°C° 0 mm 4 m/S 738 mmHg 97%
05:00 +17°C° 0 mm 4 m/S 738 mmHg 97%
06:00 +17°C° 0 mm 5 m/S 738 mmHg 92%
07:00 +19°C° 0 mm 5 m/S 738 mmHg 88%
08:00 +20°C° 0 mm 6 m/S 738 mmHg 83%
09:00 +21°C° 0 mm 6 m/S 738 mmHg 79%
10:00 +23°C° 0 mm 6 m/S 738 mmHg 76%
11:00 +24°C° 0 mm 6 m/S 738 mmHg 72%
12:00 +24°C° 0 mm 6 m/S 738 mmHg 73%
13:00 +24°C° 0 mm 6 m/S 738 mmHg 75%
14:00 +23°C° 0 mm 6 m/S 738 mmHg 76%
15:00 +23°C° 0.1 mm 6 m/S 738 mmHg 79%
16:00 +22°C° 0.1 mm 6 m/S 738 mmHg 82%
17:00 +21°C° 0.1 mm 6 m/S 738 mmHg 85%
18:00 +21°C° 0 mm 5 m/S 738 mmHg 87%
19:00 +20°C° 0 mm 5 m/S 738 mmHg 88%
20:00 +20°C° 0 mm 5 m/S 738 mmHg 90%
21:00 +19°C° 0 mm 5 m/S 738 mmHg 92%
22:00 +19°C° 0 mm 4 m/S 738 mmHg 94%
23:00 +18°C° 0 mm 4 m/S 738 mmHg 97%

19 Juni, Samstag

Zeit Temperatur Niederschläge Wind Luftdruck Luftfeuchtigkeit
00:00 +18°C° 0 mm 4 m/S 738 mmHg 97%
01:00 +17°C° 0 mm 3 m/S 738 mmHg 97%
02:00 +17°C° 0 mm 3 m/S 738 mmHg 98%
03:00 +17°C° 0 mm 3 m/S 738 mmHg 97%
04:00 +17°C° 0 mm 3 m/S 738 mmHg 97%
05:00 +17°C° 0 mm 3 m/S 738 mmHg 96%
06:00 +18°C° 0.3 mm 4 m/S 738 mmHg 94%
07:00 +19°C° 0.3 mm 4 m/S 738 mmHg 92%
08:00 +20°C° 0.3 mm 5 m/S 738 mmHg 89%
09:00 +21°C° 0.7 mm 5 m/S 738 mmHg 86%
10:00 +21°C° 0.7 mm 6 m/S 738 mmHg 83%
11:00 +22°C° 0.7 mm 7 m/S 738 mmHg 79%
12:00 +22°C° 0.6 mm 7 m/S 738 mmHg 79%
13:00 +22°C° 0.6 mm 6 m/S 738 mmHg 78%
14:00 +22°C° 0.6 mm 6 m/S 738 mmHg 77%
15:00 +22°C° 0.6 mm 6 m/S 738 mmHg 80%
16:00 +22°C° 0.6 mm 5 m/S 738 mmHg 82%
17:00 +22°C° 0.6 mm 4 m/S 737 mmHg 84%
18:00 +21°C° 0.4 mm 4 m/S 737 mmHg 87%
19:00 +20°C° 0.4 mm 4 m/S 738 mmHg 90%
20:00 +19°C° 0.4 mm 3 m/S 738 mmHg 92%
21:00 +18°C° 0 mm 3 m/S 738 mmHg 93%
22:00 +18°C° 0 mm 3 m/S 738 mmHg 94%
23:00 +17°C° 0 mm 3 m/S 738 mmHg 95%

20 Juni, Sonntag

Zeit Temperatur Niederschläge Wind Luftdruck Luftfeuchtigkeit
00:00 +18°C° 0 mm 3 m/S 738 mmHg 95%
01:00 +18°C° 0 mm 3 m/S 738 mmHg 95%
02:00 +18°C° 0 mm 3 m/S 737 mmHg 94%
03:00 +18°C° 0.1 mm 3 m/S 737 mmHg 95%
04:00 +18°C° 0.1 mm 3 m/S 737 mmHg 95%
05:00 +18°C° 0.1 mm 3 m/S 737 mmHg 95%
06:00 +19°C° 0 mm 4 m/S 738 mmHg 92%
07:00 +20°C° 0 mm 4 m/S 738 mmHg 88%
08:00 +21°C° 0 mm 5 m/S 738 mmHg 85%
09:00 +22°C° 0 mm 5 m/S 738 mmHg 79%
10:00 +23°C° 0 mm 5 m/S 738 mmHg 74%
11:00 +25°C° 0 mm 5 m/S 738 mmHg 68%
12:00 +25°C° 0 mm 5 m/S 737 mmHg 66%
13:00 +26°C° 0 mm 5 m/S 737 mmHg 65%
14:00 +26°C° 0 mm 5 m/S 737 mmHg 63%
15:00 +26°C° 0 mm 5 m/S 737 mmHg 66%
16:00 +26°C° 0 mm 5 m/S 737 mmHg 69%
17:00 +26°C° 0 mm 4 m/S 737 mmHg 72%
18:00 +23°C° 0 mm 4 m/S 736 mmHg 77%
19:00 +22°C° 0 mm 3 m/S 736 mmHg 82%
20:00 +20°C° 0 mm 3 m/S 736 mmHg 88%
21:00 +19°C° 0 mm 3 m/S 736 mmHg 89%
22:00 +18°C° 0 mm 3 m/S 736 mmHg 91%
23:00 +18°C° 0 mm 3 m/S 736 mmHg 93%

21 Juni, Montag

Zeit Temperatur Niederschläge Wind Luftdruck Luftfeuchtigkeit
00:00 +17°C° 0 mm 3 m/S 736 mmHg 93%
01:00 +17°C° 0 mm 3 m/S 735 mmHg 93%
02:00 +17°C° 0 mm 3 m/S 735 mmHg 93%
03:00 +17°C° 0 mm 3 m/S 735 mmHg 94%
04:00 +16°C° 0 mm 3 m/S 735 mmHg 94%
05:00 +16°C° 0 mm 3 m/S 735 mmHg 94%
06:00 +17°C° 0 mm 3 m/S 735 mmHg 91%
07:00 +19°C° 0 mm 3 m/S 735 mmHg 87%
08:00 +20°C° 0 mm 4 m/S 735 mmHg 83%
09:00 +20°C° 0 mm 4 m/S 735 mmHg 81%
10:00 +21°C° 0 mm 4 m/S 734 mmHg 80%
11:00 +21°C° 0 mm 4 m/S 734 mmHg 78%
12:00 +22°C° 0 mm 4 m/S 734 mmHg 76%
13:00 +23°C° 0 mm 4 m/S 734 mmHg 75%
14:00 +24°C° 0 mm 3 m/S 733 mmHg 74%
15:00 +24°C° 0.1 mm 3 m/S 733 mmHg 75%
16:00 +25°C° 0.1 mm 3 m/S 733 mmHg 77%
17:00 +25°C° 0.1 mm 3 m/S 733 mmHg 78%
18:00 +24°C° 0.2 mm 3 m/S 733 mmHg 82%
19:00 +23°C° 0.2 mm 2 m/S 733 mmHg 86%
20:00 +21°C° 0.2 mm 2 m/S 732 mmHg 90%
21:00 +20°C° 0 mm 2 m/S 732 mmHg 91%
22:00 +20°C° 0 mm 2 m/S 732 mmHg 92%
23:00 +19°C° 0 mm 2 m/S 732 mmHg 93%
Mehr zeigen

Wir brauchen deine Erlaubnis

Meteoprog und unser Service Anbieter werden persönliche Daten aufbewahren, so wie Cookies, Geräte Bezeichnung oder ähnliche Technologien von deinem Gerät und Prozess, so wie Persönliche Daten Inhalte und Werbungen, genauso wie social Media und den Verkehr zu analysieren.

  • Aufbewahrung und/oder Zugang zu deiner Geräte Informationen.

    Cookies, Geräte Bezeichnung oder andere Informationen, können aufbewahrt oder Zugang zu deinem Gerät erhalten, für den Grund, der oben angegeben wird.

  • Personalisierte Werbung und Inhalte, Messungen, Einblick in das Publikum und Produkt Entwicklung.

    Werbungen und Inhalte können personalisiert werden, basierend auf ein Profil. Mehr Daten können besser personalisierte Werbungen und Inhalte hinzufügen. Werbung und Inhalte können gezeigt und gemessen werden. Einblicke über das Publikum, welche die Werbung gesehen haben und den Inhalt, können abgeleitet werden. So wie Daten können genutzt werden, um es zu verbessern oder die Benutzer Erfahrung zu verbessern das System und die Software.

Wenn du “Ich stimme zu” klickst, erlaubst du uns, die Cookies zu benutzen die Geräte Bezeichnung, den Web oder ähnliche Technologien zu benutzen. Deine Settings, können in deinem Gerät bei deinem Browser geändert werden.

Für den bestimmten Zweck, berechtigten Interessen beruhen darauf, mehr als auf den Inhalt. Du kannst mehr darüber in unseren Privaten und Cookie Politik lesen.